Flag for U.S.A. Weather past 2 weeks in Olympia, Washington, U.S.A.

Now
54 °F

Partly sunny.


Feels Like: 52 °F
Forecast: 41 / 59 °F
Wind: 8 mph from Southwest

Location: Olympia Airport


UV Index: 3 (Moderate)

Visibility: 9 mi


Pressure: 30.11 "Hg

Humidity: 51%

Dew point: 36 °F

Location of OlympiaLocation

Historic Weather in Olympia

°F

Olympia temperature yesterday

Maximum temperature yesterday: 53 °F (at 11:54 AM)
Minimum temperature yesterday: 46 °F (at 10:54 PM)
Average temperature yesterday: 50 °F

Past Weeks' High & Low Weather Summary

 TemperatureHumidityPressure
High74 °F (Apr 7, 4:54 PM)100% (Apr 4, 3:03 AM)30.32 "Hg (Apr 4, 3:03 AM)
Low31 °F (Apr 10, 6:01 AM)23% (Apr 13, 3:54 PM)29.74 "Hg (Apr 17, 5:54 PM)
Average50 °F78%30.11 "Hg
* Reported Apr 3 12:54 PM — Apr 18 12:54 PM, Olympia, Weather by CustomWeather, © 2014

Note: Actual official high and low records may vary slightly from our data, if they occured in-between our weather recording intervals... More about our weather records

Advertising

Historic Weather Conditions — Data for Previous 24 hours

 ConditionsComfort  
Time TempWeatherWind HumidityBarometerVisibility
12:54 PM
Apr 18
55 °FBroken clouds.8 mph51%30.12 "Hg9 mi
11:54 AM52 °FPartly sunny.5 mph59%30.13 "Hg9 mi
10:54 AM51 °FPartly sunny.12 mph63%30.14 "Hg10 mi
9:54 AM50 °FScattered clouds.8 mph68%30.12 "Hg10 mi
8:54 AM47 °FSunny.13 mph77%30.11 "Hg8 mi
7:54 AM44 °FPassing clouds.9 mph82%30.11 "Hg7 mi
6:54 AM41 °FPassing clouds.6 mph86%30.09 "Hg7 mi
5:54 AM43 °FOvercast.7 mph82%30.06 "Hg8 mi
4:54 AM43 °FPassing clouds.10 mph82%30.05 "Hg9 mi
3:54 AM44 °FPassing clouds.12 mph82%30.03 "Hg9 mi
2:54 AM44 °FOvercast.10 mph79%30.02 "Hg10 mi
1:54 AM44 °FMostly cloudy.8 mph85%30.01 "Hg9 mi
12:54 AM45 °FOvercast.14 mph80%29.98 "Hg9 mi
11:54 PM
Apr 17
46 °FOvercast.8 mph79%29.96 "Hg8 mi
10:54 PM46 °FMostly cloudy.7 mph79%29.94 "Hg8 mi
10:04 PM47 °FMostly cloudy.7 mph80%29.91 "Hg10 mi
9:54 PM47 °FMostly cloudy.5 mph83%29.91 "Hg9 mi
9:03 PM47 °FMostly cloudy.9 mph83%29.88 "Hg10 mi
8:54 PM47 °FBroken clouds.9 mph83%29.88 "Hg10 mi
7:54 PM47 °FMostly cloudy.13 mph83%29.82 "Hg10 mi
6:54 PM52 °FFog.14 mph89%29.76 "Hg3 mi
5:54 PM52 °FFog.14 mph89%29.74 "Hg4 mi
4:54 PM52 °FRain. Fog.8 mph89%29.78 "Hg2 mi
3:54 PM52 °FLight rain. Fog.9 mph89%29.78 "Hg3 mi
2:54 PM52 °FLight rain. Fog.7 mph89%29.80 "Hg4 mi
Weather by CustomWeather, © 2014

See weather overview